Regional Weather Roundup
Issued by NWS Charleston, SC

Current Version | Previous Version | Graphics & Text | Print | Product List | Glossary On
Versions: 1 2 3 4 5 6 7 8 9 10 11 12 13 14 15 16 17 18 19 20 21 22 23 24 25 26 27 28 29 30 31 32 33 34 35 36 37 38 39 40 41 42 43 44 45 46 47 48 49 50
000 ASUS42 KCHS 031812 RWRCHS REGIONAL WEATHER ROUNDUP NATIONAL WEATHER SERVICE CHARLESTON SC 200 PM EDT FRI JUL 03 2015 NOTE: "FAIR" INDICATES FEW OR NO CLOUDS BELOW 12,000 FEET WITH NO SIGNIFICANT WEATHER AND/OR OBSTRUCTIONS TO VISIBILITY. NOT ALL STATIONS ARE QUALITY CONTROLLED BY THE NATIONAL WEATHER SERVICE. USE DATA WITH CAUTION...ESPECIALLY DEWPOINT OBSERVATIONS. SCZ027-030-031-034>040-042>050-031900- ...SOUTHEAST SOUTH CAROLINA... CITY SKY/WX TMP DP RH WIND PRES REMARKS N CHARLESTON PTSUNNY 87 73 62 SW9 29.99F HX 94 6HR MIN TEMP: 73; 6HR MAX TEMP: 88; 6HR PCP: TRACE; WATERFRONT PAR N/A 85 75 71 SW7 29.98F HX 93 MOUNT PLEASANT LGT RAIN 88 73 62 SW8 29.99F HX 96 JOHNS ISLAND FAIR 88 77 70 SW14 30.00S HX 100 PINOPOLIS NOT AVBL MONCKS CORNER FAIR 90 73 58 SW8 29.98F HX 98 SUMMERVILLE MOCLDY 88 75 66 SW9 29.99F HX 97 BEAUFORT MCAS MOSUNNY 91 71 51 W18G25 30.00F HX 97 6HR MIN TEMP: 73; 6HR MAX TEMP: 91; BEAUFORT ARPT FAIR 91 73 55 W13G25 30.00F HX 100 HILTON HEAD IS MOSUNNY 91 73 55 SW13G21 30.02F HX 100 WALTERBORO MOCLDY 88 72 58 W14 29.99F HX 94 ALLENDALE MOCLDY 72 70 94 VRB7 30.02R THUNDER ...SOUTHERN MIDLANDS AND PEE DEE... CITY SKY/WX TMP DP RH WIND PRES REMARKS GEORGETOWN NOT AVBL KINGSTREE NOT AVBL ORANGEBURG CLOUDY 77 71 82 W15G21 29.99S 6HR MIN TEMP: 72; 6HR MAX TEMP: 84; 6HR PCP: 0.03; BARNWELL FAIR 73 72 94 W9G18 30.03F AIKEN NOT AVBL MANNING MOCLDY 84 70 61 SW13G22 29.96F COLUMBIA CLOUDY 81 68 64 W20 29.97R 6HR MIN TEMP: 75; 6HR MAX TEMP: 82; 6HR PCP: TRACE; SUMTER CLOUDY 83 70 64 SW13 29.93F 6HR MIN TEMP: 74; 6HR MAX TEMP: 85; 6HR PCP: TRACE; FLORENCE PTSUNNY 83 75 77 SW13 29.94F HX 90 6HR MIN TEMP: 72; 6HR MAX TEMP: 83; MYRTLE BEACH MOSUNNY 86 72 62 SW10 29.99F HX 92 N MYRTLE BEACH PTSUNNY 84 73 69 S15 29.97F HX 90 6HR MIN TEMP: 74; 6HR MAX TEMP: 85; $$ GAZ063-065-086>088-099>101-113>116-118-119-134>141-150-031900- ...SOUTHEAST GEORGIA... CITY SKY/WX TMP DP RH WIND PRES REMARKS SAVANNAH ARPT PTSUNNY 92 69 47 W17G24 30.01F HX 97 6HR MIN TEMP: 73; 6HR MAX TEMP: 92; HUNTER AAF PTSUNNY 93 74 53 W13G22 30.00F HX 102 6HR MIN TEMP: 76; 6HR MAX TEMP: 93; FORT STEWART PTSUNNY 91 70 49 W12G18 30.01F HX 97 6HR MIN TEMP: 74; 6HR MAX TEMP: 91; STATESBORO NOT AVBL SYLVANIA CLOUDY 78 71 80 NW24G44 30.05R CLAXTON FAIR 90 72 55 W10 30.02F HX 96 ...CSRA...CENTRAL AND FAR SOUTHEAST GEORGIA... CITY SKY/WX TMP DP RH WIND PRES REMARKS THOMSON CLOUDY 74 73 98 SW6 30.06F AUGUSTA-BUSH LGT RAIN 72 70 93 SW7 30.01F 6HR MIN TEMP: 71; 6HR MAX TEMP: 77; 6HR PCP: 0.44; AUGUSTA-DANIEL LGT RAIN 71 68 90 VRB3 30.02F SWAINSBORO FAIR 88 72 58 NW6 30.03F HX 94 VIDALIA SUNNY 90 70 51 W12G20 30.04S HX 95 EASTMAN FAIR 91 67 45 W12 30.07R HX 94 HAZLEHURST FAIR 91 71 50 W8 30.04F HX 97 ALMA SUNNY 90 70 51 W13 30.05F HX 95 6HR MIN TEMP: 73; 6HR MAX TEMP: 90; WAYCROSS MOSUNNY 93 75 56 W10G16 30.05F HX 105 JESUP FAIR 93 72 49 W12 30.04F HX 100 BAXLEY FAIR 91 70 49 W13 30.04F HX 97 BRUNSWICK SUNNY 91 72 52 W10G16 30.06F HX 98 SAINT SIMONS SUNNY 90 69 50 W10 30.05F HX 94 6HR MIN TEMP: 75; 6HR MAX TEMP: 91; $$ SCZ027-028-034-036>038-045-046-048>050-GAZ119-141-031900- ...LAKE AND SUPPLEMENTAL COASTAL OBSERVATIONS... STATION/POSITION TIME TEMP WIND PRES WAVE SWELL AIR SEA DIR/SP/G HT/PER HT/PER/DIR (UTC) (F) (DEG/KT/KT) (MB) (FT/S) (FT/S/D) UPR LAKE MARION NOT AVBL WINYAH BAY NOT AVBL LAKE MURRAY 1700 75 220/ 6/ 11 1014.6S ACE BASIN NERRS 1645 85 150/ 3 1017.0 FORT PULASKI 1700 87 83 260/ 10/ 15 1017.4F SAPELO ISLAND 1700 87 260/ 12 1018.0S $$ ANZ835-935-AMZ111-154-330-350-352-354-370-450-454-472-031900- ...C-MAN AND BUOY OBSERVATIONS... STATION/POSITION TIME TEMP WIND PRES WAVE SWELL AIR SEA DIR/SP/G HT/PER HT/PER/DIR (UTC) (F) (DEG/KT/KT) (MB) (FT/S) (FT/S/D) BUOY 41004 1750 81 82 230/ 17/ 21 1016.0F 5/ 8 3/ 8 BUOY 41008 1750 79 79 200/ 12/ 14 1017.8F 2/ 8 2/130/ 8 FOLLY BEACH CMAN 1700 82 210/ 16/ 18 1016.4F CAPERS NEARSHORE 1708 81 230/ 16/ 19 1016.5F FRIPP NEARSHORE 1700 84 230/ 14/ 17 1016.6F STATION/POSITION TIME TEMP WIND PRES WAVE SWELL AIR SEA DIR/SP/G HT/PER HT/PER/DIR (UTC) (F) (DEG/KT/KT) (MB) (FT/S) (FT/S/D) 5E ST. MARYS GA 1721 80 N/A 2/ 8 FRYING PAN BUOY 1750 80 79 220/ 17/ 21 1016.0F 6/ 7 BUOY 41025 1750 77 82 260/ 10/ 12 1015.2F 4/ 8 3/160/ 8 CAPE LOOKOUT NC 1700 79 210/ 11/ 14 1015.1F BUOY 41002 1750 79 80 240/ 12/ 14 1019.4F 7/ 7 5/250/ 7 BUOY 41010 1720 83 85 110/ 4/ 4 1020.4F ST AUGUSTINE FL 1800 79 75 130/ 10/ 11 1019.5F $$

USA.gov is the U.S. government's official web portal to all federal, state and local government web resources and services.